BLACK ARROW R/B

基本信息
目录编号:
5581
目录名称:
BLACK ARROW R/B
国际标识:
1971-093B
轨道中心:
EARTH
物体状态:
在轨
发射日期:
1971-10-28 UTC
国别:
英国 (GB)
轨道信息
数据来源: 国际轨道数据
星历时间: 2026-07-14T03:49:53+0800
半长轴: 7269.893km
偏心率: 0.0503307
轨道倾角: 82.040°
近地点辐角: 267.921°
升交点赤经: 302.298°
平近点角: 86.427°
近地点: 525.857km
远地点: 1257.655km
周期: 102.814分钟
每日圈数: 14.005891
详细信息
发射场:
WOMRA
轨道高度:
LEO
数据来源:
AOE Integration Group
参考系:
TEME
时间系统:
UTC
历元类型:
SGP4
2D轨道图
3D轨道图
轨道高度分析图
轨道倾角分析图
轨道综合分析图
查看轨道综合分析图